Location: Unspecified
(0.0000°N, 0.0000°E)
Time: 06:31:45
(UTC+00:00)

Envisat - Pass Details

Date: 13 January 2019
Orbit: 764 x 766 km, 98.1° (Epoch: 15 June)

Event Time Altitude Azimuth Distance (km) Brightness Sun altitude
Rises 18:48:14 0° 156° (SSE) 3,231 6.2 -9.2°
Reaches altitude 10° 18:50:38 10° 150° (SSE) 2,303 5.4 -9.7°
Maximum altitude 18:55:27 45° 78° (ENE) 1,042 3.3 -10.9°
Drops below altitude 10° 19:00:15 10° 6° (N) 2,293 5.2 -12.0°
Sets 19:02:38 0° 0° (N) 3,217 6.0 -12.5°
